User: anonymous   Login
Location: Gipe Farm
(40.9466°N, 95.5370°W)
Time: 22:29:59
(UTC-05:00)
Language:

Cosmos 1842 - Orbit

View from above orbital plane
View from above orbital plane
View from above satellite
View from above satellite

Ground track
Ground track

The orbit data is extracted from the following two-line orbital elements,

1 17911U 87038A   16211.38274034  .00000999  00000-0  58433-4 0  9991
2 17911  82.5227 149.1091 0009505 280.7269  79.2891 15.10735147593068
Epoch (UTC): 29 July 2016 09:11:08
Eccentricity: 0.0009505
inclination: 82.5227°
perigee height: 527 km
apogee height: 540 km
right ascension of ascending node: 149.1091°
argument of perigee: 280.7269°
revolutions per day: 15.10735147
mean anomaly at epoch: 79.2891°
orbit number at epoch: 59306

The dashed part of the orbit path shows where the satellite is in the earth's shadow,  

DLR